EN

Hourly Weather Bolshie Sehnovichi

Today, 21 October, Wednesday

Time Temperature Precipitation Wind Pressure Humidity
00:00 +7°C° 0 mm 5 mps 752 mmHg 78%
01:00 +7°C° 0 mm 5 mps 752 mmHg 77%
02:00 +7°C° 0 mm 4 mps 751 mmHg 77%
03:00 +7°C° 0 mm 5 mps 751 mmHg 76%
04:00 +7°C° 0 mm 5 mps 750 mmHg 76%
05:00 +7°C° 0 mm 5 mps 750 mmHg 76%
06:00 +7°C° 0 mm 5 mps 750 mmHg 74%
07:00 +7°C° 0 mm 5 mps 749 mmHg 72%
08:00 +7°C° 0 mm 5 mps 749 mmHg 70%
09:00 +8°C° 0 mm 5 mps 749 mmHg 67%
10:00 +9°C° 0 mm 6 mps 749 mmHg 64%
11:00 +10°C° 0 mm 6 mps 749 mmHg 61%
12:00 +10°C° 0 mm 5 mps 749 mmHg 61%
13:00 +12°C° 0 mm 5 mps 749 mmHg 61%
14:00 +12°C° 0 mm 5 mps 749 mmHg 60%
15:00 +12°C° 0 mm 4 mps 749 mmHg 62%
16:00 +11°C° 0 mm 4 mps 748 mmHg 63%
17:00 +11°C° 0 mm 4 mps 748 mmHg 64%
18:00 +11°C° 0 mm 3 mps 748 mmHg 65%
19:00 +11°C° 0 mm 3 mps 749 mmHg 66%
20:00 +12°C° 0 mm 2 mps 749 mmHg 68%
21:00 +10°C° 0 mm 3 mps 749 mmHg 70%
22:00 +10°C° 0 mm 3 mps 749 mmHg 72%
23:00 +10°C° 0 mm 3 mps 748 mmHg 73%

Tomorrow, 22 October, Thursday

Time Temperature Precipitation Wind Pressure Humidity
00:00 +10°C° 0 mm 3 mps 749 mmHg 75%
01:00 +10°C° 0 mm 4 mps 749 mmHg 76%
02:00 +8°C° 0 mm 4 mps 749 mmHg 77%
03:00 +8°C° 0 mm 4 mps 748 mmHg 77%
04:00 +10°C° 0 mm 4 mps 748 mmHg 77%
05:00 +10°C° 0 mm 4 mps 748 mmHg 76%
06:00 +10°C° 0 mm 4 mps 748 mmHg 77%
07:00 +8°C° 0 mm 5 mps 748 mmHg 78%
08:00 +8°C° 0 mm 5 mps 748 mmHg 79%
09:00 +10°C° 0 mm 5 mps 748 mmHg 74%
10:00 +13°C° 0 mm 6 mps 748 mmHg 69%
11:00 +14°C° 0 mm 6 mps 748 mmHg 64%
12:00 +15°C° 0 mm 6 mps 749 mmHg 63%
13:00 +16°C° 0 mm 6 mps 749 mmHg 62%
14:00 +16°C° 0 mm 5 mps 749 mmHg 61%
15:00 +16°C° 0 mm 5 mps 748 mmHg 64%
16:00 +15°C° 0 mm 4 mps 748 mmHg 68%
17:00 +14°C° 0 mm 4 mps 748 mmHg 72%
18:00 +14°C° 0 mm 4 mps 748 mmHg 74%
19:00 +13°C° 0 mm 4 mps 748 mmHg 77%
20:00 +13°C° 0 mm 4 mps 749 mmHg 79%
21:00 +12°C° 0 mm 3 mps 749 mmHg 80%
22:00 +12°C° 0 mm 3 mps 749 mmHg 81%
23:00 +12°C° 0 mm 3 mps 749 mmHg 83%

Day after tomorrow, 23 October, Friday

Time Temperature Precipitation Wind Pressure Humidity
00:00 +12°C° 0 mm 3 mps 749 mmHg 83%
01:00 +11°C° 0 mm 3 mps 749 mmHg 82%
02:00 +11°C° 0 mm 3 mps 749 mmHg 82%
03:00 +11°C° 0 mm 3 mps 748 mmHg 83%
04:00 +11°C° 0 mm 3 mps 748 mmHg 83%
05:00 +11°C° 0 mm 3 mps 748 mmHg 84%
06:00 +11°C° 0 mm 3 mps 747 mmHg 83%
07:00 +11°C° 0 mm 3 mps 747 mmHg 82%
08:00 +11°C° 0 mm 4 mps 747 mmHg 82%
09:00 +12°C° 0 mm 4 mps 747 mmHg 78%
10:00 +13°C° 0 mm 4 mps 747 mmHg 75%
11:00 +14°C° 0 mm 5 mps 746 mmHg 71%
12:00 +15°C° 0 mm 5 mps 746 mmHg 69%
13:00 +15°C° 0 mm 4 mps 746 mmHg 68%
14:00 +17°C° 0 mm 4 mps 745 mmHg 66%
15:00 +15°C° 0 mm 4 mps 745 mmHg 69%
16:00 +16°C° 0 mm 3 mps 745 mmHg 73%
17:00 +14°C° 0 mm 3 mps 745 mmHg 77%
18:00 +14°C° 0 mm 3 mps 745 mmHg 79%
19:00 +13°C° 0 mm 3 mps 745 mmHg 82%
20:00 +13°C° 0 mm 3 mps 745 mmHg 85%
21:00 +13°C° 0 mm 3 mps 745 mmHg 86%
22:00 +13°C° 0 mm 3 mps 745 mmHg 86%
23:00 +13°C° 0 mm 3 mps 745 mmHg 87%

24 October, Saturday

Time Temperature Precipitation Wind Pressure Humidity
00:00 +12°C° 0.1 mm 3 mps 745 mmHg 88%
01:00 +12°C° 0.1 mm 3 mps 745 mmHg 90%
02:00 +13°C° 0.1 mm 2 mps 745 mmHg 91%
03:00 +12°C° 0.1 mm 3 mps 745 mmHg 91%
04:00 +12°C° 0.1 mm 3 mps 745 mmHg 91%
05:00 +12°C° 0.1 mm 3 mps 745 mmHg 91%
06:00 +12°C° 0.6 mm 3 mps 744 mmHg 93%
07:00 +12°C° 0.6 mm 3 mps 744 mmHg 94%
08:00 +12°C° 0.6 mm 3 mps 744 mmHg 96%
09:00 +13°C° 0.2 mm 4 mps 744 mmHg 91%
10:00 +13°C° 0.2 mm 4 mps 745 mmHg 87%
11:00 +14°C° 0.2 mm 5 mps 745 mmHg 82%
12:00 +14°C° 0.4 mm 6 mps 745 mmHg 77%
13:00 +14°C° 0.4 mm 6 mps 745 mmHg 73%
14:00 +14°C° 0.4 mm 7 mps 745 mmHg 69%
15:00 +14°C° 0 mm 6 mps 745 mmHg 70%
16:00 +13°C° 0 mm 6 mps 745 mmHg 72%
17:00 +12°C° 0 mm 5 mps 745 mmHg 74%
18:00 +10°C° 0.1 mm 5 mps 746 mmHg 75%
19:00 +10°C° 0.1 mm 5 mps 747 mmHg 76%
20:00 +9°C° 0.1 mm 6 mps 747 mmHg 78%
21:00 +9°C° 0 mm 5 mps 748 mmHg 79%
22:00 +8°C° 0 mm 4 mps 748 mmHg 80%
23:00 +7°C° 0 mm 4 mps 749 mmHg 81%

25 October, Sunday

Time Temperature Precipitation Wind Pressure Humidity
00:00 +7°C° 0 mm 4 mps 749 mmHg 82%
01:00 +7°C° 0 mm 3 mps 749 mmHg 84%
02:00 +7°C° 0 mm 3 mps 750 mmHg 86%
03:00 +5°C° 0 mm 3 mps 750 mmHg 87%
04:00 +5°C° 0 mm 3 mps 750 mmHg 89%
05:00 +6°C° 0 mm 2 mps 750 mmHg 90%
06:00 +6°C° 0 mm 2 mps 751 mmHg 90%
07:00 +6°C° 0 mm 2 mps 751 mmHg 90%
08:00 +6°C° 0 mm 2 mps 751 mmHg 90%
09:00 +7°C° 0 mm 2 mps 751 mmHg 82%
10:00 +9°C° 0 mm 2 mps 751 mmHg 75%
11:00 +10°C° 0 mm 2 mps 752 mmHg 67%
12:00 +12°C° 0 mm 2 mps 751 mmHg 64%
13:00 +13°C° 0 mm 2 mps 751 mmHg 60%
14:00 +13°C° 0 mm 2 mps 751 mmHg 57%
15:00 +12°C° 0 mm 2 mps 751 mmHg 60%
16:00 +12°C° 0 mm 2 mps 750 mmHg 64%
17:00 +10°C° 0 mm 2 mps 750 mmHg 68%
18:00 +9°C° 0 mm 2 mps 750 mmHg 70%
19:00 +9°C° 0 mm 3 mps 750 mmHg 73%
20:00 +8°C° 0 mm 3 mps 750 mmHg 75%
21:00 +8°C° 0 mm 3 mps 750 mmHg 77%
22:00 +8°C° 0 mm 3 mps 750 mmHg 79%
23:00 +7°C° 0 mm 3 mps 750 mmHg 81%

26 October, Monday

Time Temperature Precipitation Wind Pressure Humidity
00:00 +7°C° 0 mm 3 mps 750 mmHg 82%
01:00 +6°C° 0 mm 4 mps 750 mmHg 82%
02:00 +6°C° 0 mm 4 mps 750 mmHg 83%
03:00 +6°C° 0 mm 4 mps 750 mmHg 85%
04:00 +6°C° 0 mm 4 mps 749 mmHg 86%
05:00 +6°C° 0 mm 4 mps 749 mmHg 88%
06:00 +6°C° 0 mm 4 mps 749 mmHg 88%
07:00 +6°C° 0 mm 4 mps 749 mmHg 88%
08:00 +6°C° 0 mm 4 mps 749 mmHg 88%
09:00 +7°C° 0 mm 5 mps 749 mmHg 82%
10:00 +9°C° 0 mm 5 mps 749 mmHg 77%
11:00 +10°C° 0 mm 6 mps 749 mmHg 72%
12:00 +11°C° 0 mm 6 mps 748 mmHg 69%
13:00 +13°C° 0 mm 6 mps 748 mmHg 66%
14:00 +14°C° 0 mm 6 mps 748 mmHg 64%
15:00 +13°C° 0 mm 6 mps 748 mmHg 67%
16:00 +13°C° 0 mm 5 mps 747 mmHg 70%
17:00 +12°C° 0 mm 5 mps 747 mmHg 73%
18:00 +12°C° 0 mm 5 mps 747 mmHg 74%
19:00 +10°C° 0 mm 5 mps 747 mmHg 75%
20:00 +10°C° 0 mm 5 mps 747 mmHg 76%
21:00 +9°C° 0 mm 5 mps 747 mmHg 76%
22:00 +9°C° 0 mm 5 mps 747 mmHg 76%
23:00 +9°C° 0 mm 5 mps 747 mmHg 76%

27 October, Tuesday

Time Temperature Precipitation Wind Pressure Humidity
00:00 +8°C° 0 mm 5 mps 747 mmHg 75%
01:00 +8°C° 0 mm 5 mps 747 mmHg 73%
02:00 +8°C° 0 mm 5 mps 747 mmHg 71%
03:00 +8°C° 0 mm 5 mps 747 mmHg 71%
04:00 +8°C° 0 mm 5 mps 747 mmHg 70%
05:00 +8°C° 0 mm 4 mps 747 mmHg 69%
06:00 +8°C° 0 mm 4 mps 747 mmHg 69%
07:00 +8°C° 0 mm 4 mps 747 mmHg 68%
08:00 +8°C° 0 mm 4 mps 748 mmHg 68%
09:00 +10°C° 0 mm 4 mps 748 mmHg 66%
10:00 +11°C° 0 mm 4 mps 748 mmHg 64%
11:00 +11°C° 0 mm 4 mps 748 mmHg 62%
12:00 +12°C° 0 mm 4 mps 748 mmHg 61%
13:00 +12°C° 0 mm 4 mps 748 mmHg 61%
14:00 +13°C° 0 mm 4 mps 749 mmHg 61%
15:00 +12°C° 0 mm 4 mps 749 mmHg 63%
16:00 +12°C° 0 mm 3 mps 749 mmHg 65%
17:00 +12°C° 0 mm 3 mps 749 mmHg 67%
18:00 +11°C° 0 mm 3 mps 749 mmHg 69%
19:00 +11°C° 0 mm 3 mps 749 mmHg 71%
20:00 +11°C° 0 mm 3 mps 749 mmHg 73%
21:00 +10°C° 0 mm 3 mps 750 mmHg 74%
22:00 +10°C° 0 mm 2 mps 750 mmHg 76%
23:00 +9°C° 0 mm 2 mps 750 mmHg 77%
Show more